| time (UTC) | temp F | wind direction | speed MPH | gust MPH | rain 1hr in | rain 24hr in | rain mn in | humidity % | barometer mb |
| 20260504203054 | 81 | 195 | 6.0 | 16.0 | 0.00 | 0.00 | 0.00 | 39 | 1009.1 |
| 20260504201543 | 80 | 230 | 8.0 | 21.0 | 0.00 | 0.00 | 0.00 | 38 | 1009.4 |
| 20260504200044 | 80 | 174 | 12.0 | 22.0 | 0.00 | 0.00 | 0.00 | 37 | 1009.6 |
| 20260504194554 | 81 | 199 | 8.0 | 17.0 | 0.00 | 0.00 | 0.00 | 36 | 1009.8 |
| 20260504193049 | 81 | 158 | 7.0 | 22.0 | 0.00 | 0.00 | 0.00 | 38 | 1010.2 |
| 20260504191536 | 80 | 206 | 11.0 | 22.0 | 0.00 | 0.00 | 0.00 | 38 | 1010.3 |
| 20260504190036 | 81 | 193 | 13.0 | 19.0 | 0.00 | 0.00 | 0.00 | 36 | 1010.4 |
| 20260504184533 | 82 | 200 | 9.0 | 18.0 | 0.00 | 0.00 | 0.00 | 37 | 1010.5 |
| 20260504183031 | 81 | 135 | 9.0 | 20.0 | 0.00 | 0.00 | 0.00 | 38 | 1010.6 |
| 20260504181529 | 80 | 185 | 7.0 | 21.0 | 0.00 | 0.00 | 0.00 | 40 | 1010.9 |
| 20260504180028 | 80 | 230 | 10.0 | 22.0 | 0.00 | 0.00 | 0.00 | 38 | 1010.9 |
| 20260504174526 | 79 | 181 | 7.0 | 15.0 | 0.00 | 0.00 | 0.00 | 40 | 1011.2 |
| 20260504173034 | 80 | 197 | 9.0 | 16.0 | 0.00 | 0.00 | 0.00 | 40 | 1011.4 |
| 20260504171523 | 78 | 299 | 7.0 | 14.0 | 0.00 | 0.00 | 0.00 | 46 | 1011.6 |
| 20260504140104 | 70 | 215 | 4.0 | 11.0 | 0.00 | 0.00 | 0.00 | 61 | 1013.1 |
| 20260504081515 | 62 | 160 | 3.0 | 7.0 | 0.00 | 0.00 | 0.00 | 64 | 1012.6 |
| 20260504060103 | 61 | 205 | 1.0 | 7.0 | 0.00 | 0.00 | 0.00 | 62 | 1014.0 |
| 20260504044601 | 60 | 156 | 1.0 | 4.0 | 0.00 | 0.00 | 0.00 | 63 | 1014.2 |
| 20260504043052 | 58 | 131 | 2.0 | 5.0 | 0.00 | 0.00 | 0.00 | 66 | 1014.3 |
| 20260504041552 | 56 | 160 | 0.0 | 3.0 | 0.00 | 0.00 | 0.00 | 72 | 1014.3 |
| 20260504040052 | 55 | 122 | 0.0 | 2.0 | 0.00 | 0.00 | 0.00 | 78 | 1014.3 |
| 20260504034554 | 55 | 139 | 0.0 | 0.0 | 0.00 | 0.00 | 0.00 | 79 | 1014.3 |
| 20260504033056 | 55 | 151 | 0.0 | 0.0 | 0.00 | 0.00 | 0.00 | 78 | 1014.6 |
| 20260504031551 | 56 | 141 | 0.0 | 0.0 | 0.00 | 0.00 | 0.00 | 77 | 1014.6 |
| 20260504030050 | 56 | 141 | 0.0 | 0.0 | 0.00 | 0.00 | 0.00 | 76 | 1014.8 |
| 20260504024549 | 57 | 141 | 0.0 | 1.0 | 0.00 | 0.00 | 0.00 | 75 | 1014.8 |
| 20260504023049 | 58 | 169 | 0.0 | 0.0 | 0.00 | 0.00 | 0.00 | 72 | 1014.7 |
| 20260504021549 | 59 | 169 | 0.0 | 0.0 | 0.00 | 0.00 | 0.00 | 70 | 1014.6 |
| 20260504020048 | 60 | 169 | 0.0 | 0.0 | 0.00 | 0.00 | 0.00 | 69 | 1014.5 |
| 20260504014549 | 61 | 169 | 0.0 | 0.0 | 0.00 | 0.00 | 0.00 | 66 | 1014.4 |
| 20260504013050 | 62 | 169 | 0.0 | 0.0 | 0.00 | 0.00 | 0.00 | 64 | 1014.3 |
| 20260504011550 | 64 | 169 | 0.0 | 0.0 | 0.00 | 0.00 | 0.00 | 59 | 1014.3 |
| 20260504010054 | 68 | 169 | 0.0 | 0.0 | 0.00 | 0.00 | 0.00 | 53 | 1014.3 |
| 20260504004544 | 70 | 109 | 0.0 | 2.0 | 0.00 | 0.00 | 0.00 | 45 | 1014.3 |
| 20260504003043 | 72 | 158 | 0.0 | 1.0 | 0.00 | 0.00 | 0.00 | 40 | 1014.4 |
| 20260504001601 | 72 | 174 | 0.0 | 1.0 | 0.00 | 0.00 | 0.00 | 39 | 1014.4 |
| 20260504000044 | 73 | 168 | 2.0 | 6.0 | 0.00 | 0.00 | 0.00 | 37 | 1014.4 |
| 20260503234541 | 73 | 164 | 1.0 | 6.0 | 0.00 | 0.00 | 0.00 | 37 | 1014.6 |
| 20260503233039 | 73 | 190 | 4.0 | 7.0 | 0.00 | 0.00 | 0.00 | 35 | 1014.6 |
| 20260503231538 | 74 | 197 | 4.0 | 7.0 | 0.00 | 0.00 | 0.00 | 34 | 1014.8 |
| 20260503230036 | 74 | 158 | 4.0 | 11.0 | 0.00 | 0.00 | 0.00 | 33 | 1014.9 |
| 20260503224537 | 74 | 164 | 3.0 | 10.0 | 0.00 | 0.00 | 0.00 | 35 | 1015.0 |
| 20260503223034 | 74 | 198 | 6.0 | 10.0 | 0.00 | 0.00 | 0.00 | 30 | 1015.2 |
| 20260503221539 | 75 | 211 | 5.0 | 12.0 | 0.00 | 0.00 | 0.00 | 32 | 1015.3 |
| 20260503220031 | 75 | 210 | 5.0 | 13.0 | 0.00 | 0.00 | 0.00 | 32 | 1015.4 |
| 20260503214528 | 75 | 222 | 6.0 | 9.0 | 0.00 | 0.00 | 0.00 | 32 | 1015.7 |
| 20260503213032 | 76 | 180 | 5.0 | 10.0 | 0.00 | 0.00 | 0.00 | 31 | 1015.9 |
| 20260503211524 | 76 | 171 | 4.0 | 10.0 | 0.00 | 0.00 | 0.00 | 35 | 1016.2 |
| 20260503210021 | 75 | 235 | 3.0 | 12.0 | 0.00 | 0.00 | 0.00 | 32 | 1016.6 |
| 20260503204524 | 75 | 239 | 2.0 | 7.0 | 0.00 | 0.00 | 0.00 | 33 | 1016.8 |